User: anonymous
Location: Ostrava
(49.8330°N, 18.2830°E)
Time: 08:13:40
(UTC+02:00)
Language:

Tiros 2 - Orbit

View from above orbital plane
View from above orbital plane
View from above satellite
View from above satellite

Ground track
Ground track

The orbit data is extracted from the following two-line orbital elements,

1 00063U 60016A   14113.68065763  .00343378  57766-4  81214-3 0  3663
2 00063 048.4997 056.5253 0004504 195.4081 164.6746 15.96137702912411
Epoch (UTC): 23 April 2014 16:20:08
Eccentricity: 0.0004504
inclination: 48.4997°
perigee height: 282 km
apogee height: 288 km
right ascension of ascending node: 56.5253°
argument of perigee: 195.4081°
revolutions per day: 15.96137702
mean anomaly at epoch: 164.6746°
orbit number at epoch: 91241

The dashed part of the orbit path shows where the satellite is in the earth's shadow,  

DLR